[[{"header":{"parameterUnit":"m.s-1","parameterCategory":1,"la1":30.2991,"la2":30.254,"lo1":-89.0895,"lo2":-89.0444,"dy":0.0017,"dx":0.0017,"nx":28,"ny":28,"refTime":"2025-11-26T03:00:00:Z","depth":0,"parameterNumber":2,"parameterNumberName":"U-component_of_WINDS"},"data":[0,0,0,0,0,0,0,0,0,0,0,0,0,0,0,0,0,0,0,0,0,0,0,0,0,0,0,0,0,0,0,0,0,0,0,0,0,0,0,0,0,0,0,0,0,0,0,0,0,0,0,0,0,0,0,0,0,0,-0.6775,-0.6776,0,-0.6867,-0.6868,-0.6869,-0.6846,-0.6844,-0.6842,-0.684,-0.6937,-0.6941,-0.6945,0,0,0,0,0,0,0,0,0,0,0,0,0,-0.6582,-0.6586,-0.6775,-0.6776,-0.6778,-0.6867,-0.6868,-0.6869,-0.6846,-0.6844,-0.6842,-0.684,-0.6936,-0.6941,-0.6946,0,0,0,0,0,0,0,0,0,0,0,0,0,-0.6669,-0.6587,-0.6775,-0.6777,-0.6778,-0.6867,-0.6868,-0.687,-0.6846,-0.6844,-0.6841,-0.6838,-0.6934,-0.694,-0.6947,-0.7041,0,0,-0.6966,-0.6969,0,0,0,0,0,0,0,0,-0.6664,-0.6676,-0.6775,-0.6777,-0.6778,-0.6842,-0.6835,-0.6927,-0.6847,-0.682,-0.684,-0.6837,-0.6908,-0.6916,-0.694,-0.7045,-0.7049,-0.6967,-0.6971,-0.6973,-0.6975,0,0,0,0,0,0,0,-0.6658,-0.6672,-0.6812,-0.6777,-0.6778,-0.6773,-0.6783,-0.6853,-0.6878,-0.6823,-0.6821,-0.6832,-0.6908,-0.6933,-0.6942,-0.7051,-0.6967,-0.6972,-0.6976,-0.6979,-0.7238,-0.7241,0,0,0,0,0,0,-0.6651,-0.6667,-0.6809,-0.6814,-0.6713,-0.6779,-0.679,-0.6824,-0.6878,-0.6883,-0.6834,-0.6831,-0.6924,-0.6934,-0.6945,-0.706,-0.6973,-0.6979,-0.6983,-0.7235,-0.7239,-0.7242,0,0,0,0,0,0,-0.6647,-0.6664,-0.6805,-0.6741,-0.6758,-0.6785,-0.6825,-0.6828,-0.6853,-0.6886,-0.6891,-0.6855,-0.6922,-0.6936,-0.7017,-0.7063,-0.6982,-0.6988,-0.7232,-0.7236,-0.7241,-0.7289,0,0,0,0,0,0,-0.6641,-0.6662,-0.6698,-0.6741,-0.6762,-0.6875,-0.6827,-0.6831,-0.6864,-0.686,-0.6907,-0.6913,-0.6921,-0.7007,-0.7023,-0.707,-0.6993,-0.7228,-0.7234,-0.7239,-0.7283,-0.7295,-0.7304,0,0,0,0,0,-0.6634,-0.6708,-0.67,-0.6717,-0.6807,-0.6878,-0.689,-0.6897,-0.6867,-0.6904,-0.6925,-0.6911,-0.7054,-0.7016,-0.7034,-0.7083,-0.7225,-0.7232,-0.7239,-0.7279,-0.7292,-0.7304,0,0,0,0,0,0,-0.6671,-0.6714,-0.6705,-0.6795,-0.6833,-0.6874,-0.692,-0.6911,-0.6958,-0.6953,-0.696,-0.6971,-0.7054,-0.7076,-0.7033,-0.7177,-0.7135,-0.7146,-0.716,-0.7173,-0.7183,-0.7178,-0.6998,0,0,0,0,0,-0.6689,-0.6743,-0.6778,-0.6854,-0.6873,-0.6893,-0.6924,-0.6926,-0.6966,-0.6982,-0.701,-0.7049,-0.7103,-0.7139,-0.719,-0.7285,-0.7296,-0.7328,-0.7338,-0.7346,-0.7357,-0.7409,-0.7424,-0.7265,-0.7265,-0.7265,0,0,-0.6728,-0.6758,-0.6792,-0.6862,-0.6891,-0.6947,-0.6907,-0.6968,-0.701,-0.6992,-0.707,-0.7091,-0.7136,-0.7225,-0.7265,-0.7246,-0.7402,-0.7355,-0.7362,-0.7367,-0.7418,-0.7433,-0.7446,-0.727,-0.7269,-0.7268,0,0,-0.6828,-0.6856,-0.6923,-0.6952,-0.6997,-0.701,-0.7025,-0.7067,-0.7081,-0.7159,-0.7147,-0.7197,-0.7289,-0.7322,-0.735,-0.7461,-0.7451,-0.7477,-0.7533,-0.7584,-0.7597,-0.7608,-0.7649,-0.7664,-0.7487,-0.7487,-0.7487,0,-0.6872,-0.6955,-0.6958,-0.7021,-0.7052,-0.7036,-0.7105,-0.7134,-0.7193,-0.7216,-0.7192,-0.7308,-0.7337,-0.7433,-0.746,-0.7483,-0.7503,-0.7474,-0.7594,-0.7606,-0.7616,-0.7656,-0.7671,-0.749,-0.749,-0.7489,-0.7489,0,-0.7007,-0.7065,-0.7113,-0.717,-0.7207,-0.7272,-0.7286,-0.7322,-0.7321,-0.7336,-0.7416,-0.745,-0.7508,-0.753,-0.753,-0.7627,-0.7613,-0.7592,-0.7551,-0.7634,-0.7672,-0.7687,-0.7494,-0.7493,-0.7492,-0.7492,0,0,-0.7135,-0.7192,-0.721,-0.7236,-0.7283,-0.7328,-0.7392,-0.7448,-0.748,-0.752,-0.7576,-0.7653,-0.7633,-0.7666,-0.7668,-0.7713,-0.78,-0.7686,-0.7687,-0.7708,-0.7911,-0.7929,-0.7946,-0.7792,-0.7795,-0.7797,-0.7908,0,-0.7241,-0.7354,-0.7358,-0.7461,-0.7515,-0.75,-0.7556,-0.7591,-0.7607,-0.7655,-0.7672,-0.7728,-0.7697,-0.7716,-0.7759,-0.778,-0.7842,-0.7772,-0.7845,-0.7848,-0.7837,-0.7965,-0.7985,-0.8088,-0.7922,-0.7925,-0.7927,0,-0.7381,-0.7425,-0.7533,-0.7572,-0.7595,-0.7645,-0.7697,-0.7743,-0.7782,-0.7791,-0.7826,-0.7822,-0.7888,-0.7842,-0.7934,-0.7887,-0.7916,-0.7931,-0.7935,-0.7945,-0.7894,-0.7981,-0.8121,-0.8137,-0.7949,-0.7947,-0.7946,0,-0.7466,-0.7553,-0.7629,-0.7651,-0.7698,-0.7734,-0.7755,-0.7792,-0.7825,-0.787,-0.7892,-0.7944,-0.7973,-0.8013,-0.8023,-0.7989,-0.8116,-0.8071,-0.8126,-0.8126,-0.8156,-0.8154,-0.8305,-0.817,-0.817,-0.817,-0.817,0,-0.7586,-0.7653,-0.7668,-0.7715,-0.779,-0.7794,-0.7868,-0.7887,-0.792,-0.7971,-0.796,-0.8008,-0.8017,-0.8067,-0.8075,-0.8151,-0.8163,-0.8173,-0.8175,-0.8176,-0.8175,-0.8197,-0.8191,-0.8174,-0.8173,-0.8172,-0.8172,0,-0.7696,-0.7708,-0.779,-0.7827,-0.7838,-0.7892,-0.7924,-0.797,-0.7982,-0.8047,-0.8063,-0.8084,-0.8142,-0.8155,-0.8225,-0.823,-0.8321,-0.8314,-0.8308,-0.8308,-0.8363,-0.8358,-0.8536,-0.856,-0.8407,-0.8408,-0.8409,0,-0.7773,-0.7824,-0.7866,-0.7899,-0.7922,-0.7975,-0.8008,-0.8013,-0.8049,-0.8097,-0.8137,-0.8194,-0.824,-0.8334,-0.8357,-0.841,-0.8406,-0.8464,-0.8414,-0.8414,-0.841,-0.8408,-0.8413,-0.8475,-0.8477,-0.8478,-0.8479,0,-0.7908,-0.7912,-0.796,-0.8011,-0.805,-0.8091,-0.8129,-0.8157,-0.8167,-0.8207,-0.8266,-0.8302,-0.8372,-0.843,-0.8483,-0.8505,-0.8495,-0.8494,-0.851,-0.8513,-0.8508,-0.8513,-0.8336,-0.8491,-0.849,-0.8489,-0.8488,-0.8488,-0.8006,-0.8051,-0.8088,-0.8142,-0.8171,-0.8206,-0.8251,-0.8269,-0.8318,-0.8376,-0.8375,-0.844,-0.8478,-0.8548,-0.8573,-0.8625,-0.8607,-0.8629,-0.8636,-0.8642,-0.8648,-0.8497,-0.8634,-0.8634,-0.8633,-0.8633,-0.8633,0,-0.8143,-0.8165,-0.8215,-0.8268,-0.8311,-0.8295,-0.8336,-0.8373,-0.8431,-0.8466,-0.8511,-0.8579,-0.8634,-0.866,-0.8714,-0.875,-0.8747,-0.8765,-0.8764,-0.8769,-0.866,-0.8642,-0.8767,-0.8767,-0.8767,-0.8767,-0.8767,-0.8766,-0.822,-0.8296,-0.8303,-0.8393,-0.8415,-0.8478,-0.8503,-0.8536,-0.8565,-0.8641,-0.8686,-0.8702,-0.8734,-0.879,-0.884,-0.8846,-0.8868,-0.8888,-0.8892,-0.879,-0.8777,-0.8764,-0.8747,-0.8892,-0.8892,-0.8998,-0.8999,-0.9]},{"header":{"parameterUnit":"m.s-1","parameterCategory":1,"la1":30.2991,"la2":30.254,"lo1":-89.0895,"lo2":-89.0444,"dy":0.0017,"dx":0.0017,"nx":28,"ny":28,"refTime":"2025-11-26T03:00:00:Z","depth":0,"parameterNumber":3,"parameterNumberName":"V-component_of_WINDS"},"data":[0,0,0,0,0,0,0,0,0,0,0,0,0,0,0,0,0,0,0,0,0,0,0,0,0,0,0,0,0,0,0,0,0,0,0,0,0,0,0,0,0,0,0,0,0,0,0,0,0,0,0,0,0,0,0,0,0,0,-6.4708,-6.471,0,-6.4863,-6.4865,-6.4866,-6.4784,-6.478,-6.4776,-6.4772,-6.4925,-6.4933,-6.4941,0,0,0,0,0,0,0,0,0,0,0,0,0,-6.4336,-6.4343,-6.4708,-6.471,-6.4712,-6.4863,-6.4865,-6.4867,-6.4785,-6.478,-6.4775,-6.477,-6.4922,-6.4932,-6.4941,0,0,0,0,0,0,0,0,0,0,0,0,0,-6.4495,-6.4346,-6.4708,-6.4689,-6.4689,-6.4862,-6.4865,-6.4867,-6.4786,-6.4779,-6.4773,-6.4767,-6.4919,-6.4931,-6.4943,-6.5141,0,0,-6.4979,-6.4984,0,0,0,0,0,0,0,0,-6.4486,-6.4509,-6.469,-6.4691,-6.4691,-6.4798,-6.479,-6.4959,-6.4787,-6.4749,-6.4772,-6.4764,-6.4887,-6.4901,-6.4944,-6.5148,-6.5155,-6.498,-6.4987,-6.4992,-6.4996,0,0,0,0,0,0,0,-6.4475,-6.4501,-6.4769,-6.4693,-6.4693,-6.4671,-6.4687,-6.4821,-6.4851,-6.4752,-6.4746,-6.4766,-6.4886,-6.4933,-6.4947,-6.5157,-6.498,-6.499,-6.4998,-6.5002,-6.5531,-6.5537,0,0,0,0,0,0,-6.4466,-6.4493,-6.4764,-6.4774,-6.4571,-6.4683,-6.4701,-6.477,-6.4849,-6.4856,-6.4771,-6.4761,-6.4915,-6.4933,-6.4952,-6.519,-6.4992,-6.5004,-6.501,-6.5524,-6.5532,-6.554,0,0,0,0,0,0,-6.4458,-6.4491,-6.4758,-6.4632,-6.4664,-6.4696,-6.4774,-6.4776,-6.4822,-6.4864,-6.4868,-6.4814,-6.4911,-6.4935,-6.5095,-6.5194,-6.5009,-6.502,-6.5516,-6.5527,-6.5536,-6.5667,0,0,0,0,0,0,-6.4448,-6.4489,-6.4566,-6.4634,-6.4671,-6.49,-6.4781,-6.4784,-6.4844,-6.4833,-6.4905,-6.4911,-6.4908,-6.5078,-6.5107,-6.5207,-6.5029,-6.5507,-6.5521,-6.5533,-6.5654,-6.568,-6.5703,0,0,0,0,0,-6.4435,-6.4595,-6.457,-6.4603,-6.4769,-6.4906,-6.4927,-6.4922,-6.4852,-6.4929,-6.4956,-6.4909,-6.5178,-6.5095,-6.5127,-6.5232,-6.5501,-6.5517,-6.5532,-6.5643,-6.5675,-6.5702,0,0,0,0,0,0,-6.4536,-6.4604,-6.4577,-6.4764,-6.4831,-6.4892,-6.4989,-6.4957,-6.5043,-6.5029,-6.5017,-6.5034,-6.52,-6.5231,-6.5137,-6.5428,-6.5328,-6.5351,-6.5402,-6.5433,-6.5457,-6.5446,-6.5039,0,0,0,0,0,-6.458,-6.4688,-6.4741,-6.4901,-6.4936,-6.4957,-6.5017,-6.5007,-6.5074,-6.5101,-6.514,-6.5205,-6.5304,-6.537,-6.5464,-6.5657,-6.5671,-6.5745,-6.577,-6.579,-6.581,-6.5914,-6.5948,-6.5591,-6.559,-6.559,0,0,-6.4672,-6.4723,-6.4791,-6.4923,-6.4973,-6.5083,-6.4981,-6.5102,-6.5183,-6.5119,-6.5273,-6.5303,-6.5375,-6.5553,-6.5633,-6.5584,-6.5912,-6.581,-6.5825,-6.5835,-6.5934,-6.5967,-6.5998,-6.5601,-6.5599,-6.5598,0,0,-6.4897,-6.4946,-6.5086,-6.5138,-6.5216,-6.5229,-6.5262,-6.5329,-6.5347,-6.5502,-6.5456,-6.5551,-6.5723,-6.5776,-6.5826,-6.607,-6.603,-6.6101,-6.623,-6.6331,-6.636,-6.6384,-6.6472,-6.6503,-6.612,-6.6121,-6.6121,0,-6.5001,-6.5168,-6.5161,-6.5286,-6.5345,-6.5293,-6.5433,-6.5484,-6.5587,-6.5628,-6.5572,-6.5787,-6.5832,-6.6021,-6.6081,-6.6123,-6.6159,-6.6093,-6.6356,-6.6381,-6.6404,-6.6487,-6.652,-6.6129,-6.6128,-6.6127,-6.6126,0,-6.5292,-6.5408,-6.5511,-6.5614,-6.5684,-6.5816,-6.5828,-6.5899,-6.5883,-6.5902,-6.6059,-6.6111,-6.6214,-6.6258,-6.6243,-6.6446,-6.6413,-6.6358,-6.6257,-6.6447,-6.6525,-6.6556,-6.614,-6.6138,-6.6135,-6.6133,0,0,-6.5586,-6.5684,-6.5722,-6.5768,-6.5849,-6.5938,-6.6067,-6.617,-6.6231,-6.6303,-6.6411,-6.6557,-6.6506,-6.6562,-6.6553,-6.6642,-6.6833,-6.6575,-6.6576,-6.6621,-6.7058,-6.71,-6.7138,-6.6806,-6.6812,-6.6817,-6.7052,0,-6.5816,-6.6044,-6.6041,-6.6251,-6.6358,-6.631,-6.6422,-6.6483,-6.6504,-6.6595,-6.6616,-6.6721,-6.6645,-6.6679,-6.6766,-6.6791,-6.692,-6.6774,-6.6904,-6.6909,-6.6889,-6.7178,-6.7223,-6.7443,-6.7083,-6.7088,-6.7092,0,-6.6116,-6.6201,-6.6422,-6.6488,-6.6533,-6.6634,-6.6728,-6.6816,-6.6884,-6.6892,-6.6956,-6.6932,-6.7061,-6.6957,-6.7134,-6.7035,-6.7087,-6.7108,-6.7116,-6.7129,-6.7012,-6.7199,-6.7513,-6.7546,-6.7139,-6.7136,-6.7132,0,-6.6308,-6.6477,-6.6632,-6.6673,-6.6753,-6.6826,-6.6862,-6.6924,-6.6986,-6.7067,-6.7107,-6.7201,-6.7253,-6.7326,-6.7328,-6.7252,-6.7507,-6.7403,-6.7516,-6.7517,-6.7573,-6.7569,-6.79,-6.7606,-6.7606,-6.7605,-6.7604,0,-6.6566,-6.6704,-6.6719,-6.6815,-6.6966,-6.6961,-6.7111,-6.714,-6.7196,-6.7294,-6.7257,-6.735,-6.7347,-6.7441,-6.7443,-6.7589,-6.7612,-6.7622,-6.7621,-6.7626,-6.7625,-6.7661,-6.7646,-6.7614,-6.7612,-6.761,-6.7609,0,-6.6807,-6.6823,-6.6989,-6.7052,-6.7071,-6.718,-6.7233,-6.7323,-6.7339,-6.7465,-6.7494,-6.752,-6.7628,-6.7637,-6.7762,-6.7763,-6.7941,-6.7923,-6.7919,-6.7916,-6.8029,-6.8019,-6.8396,-6.8445,-6.8118,-6.8121,-6.8124,0,-6.6971,-6.7076,-6.7151,-6.7216,-6.7257,-6.7361,-6.7424,-6.7422,-6.7489,-6.7574,-6.7654,-6.7759,-6.7843,-6.8019,-6.8047,-6.8143,-6.8127,-6.8252,-6.8141,-6.8143,-6.8129,-6.8123,-6.8134,-6.8274,-6.8278,-6.8281,-6.8283,0,-6.7261,-6.7264,-6.7358,-6.7455,-6.7532,-6.7608,-6.7679,-6.7733,-6.7739,-6.7816,-6.7928,-6.7993,-6.8122,-6.8227,-6.832,-6.8355,-6.8321,-6.8318,-6.8349,-6.8356,-6.835,-6.8355,-6.7979,-6.8309,-6.8307,-6.8305,-6.8303,-6.8302,-6.7469,-6.756,-6.7628,-6.7733,-6.7786,-6.7853,-6.7941,-6.7969,-6.8063,-6.8169,-6.8161,-6.8284,-6.8348,-6.847,-6.8513,-6.8608,-6.8565,-6.8611,-6.8622,-6.8634,-6.8646,-6.8334,-6.8624,-6.8624,-6.8623,-6.8622,-6.8622,0,-6.7757,-6.7798,-6.7896,-6.7997,-6.808,-6.8041,-6.8117,-6.8188,-6.8298,-6.8361,-6.8446,-6.8573,-6.8675,-6.8712,-6.881,-6.8879,-6.8865,-6.8905,-6.89,-6.8909,-6.8678,-6.8641,-6.8914,-6.8914,-6.8914,-6.8914,-6.8914,-6.8914,-6.7917,-6.807,-6.808,-6.8258,-6.8297,-6.8419,-6.8466,-6.8527,-6.8578,-6.8723,-6.8808,-6.8831,-6.8884,-6.8986,-6.9076,-6.9084,-6.9122,-6.9169,-6.917,-6.8954,-6.8925,-6.8897,-6.8862,-6.9177,-6.9177,-6.9393,-6.9395,-6.9396]}]]